www.pogodaiklimat.ru
ПОГОДА в Акроне
Время
и дата
23:54 13.07
00:54 14.07
01:54 14.07
02:54 14.07
03:54 14.07
04:54 14.07
05:54 14.07
06:54 14.07
07:54 14.07
08:54 14.07
09:54 14.07
10:54 14.07
11:54 14.07
12:54 14.07
13:54 14.07
14:54 14.07
15:54 14.07
16:54 14.07
17:54 14.07
18:12 14.07
18:49 14.07
18:54 14.07
19:54 14.07
20:54 14.07
21:54 14.07
22:54 14.07
23:54 14.07
00:54 15.07
01:54 15.07
02:54 15.07
03:54 15.07
04:54 15.07
05:54 15.07
06:54 15.07
07:54 15.07
08:54 15.07
09:54 15.07
10:54 15.07
11:54 15.07
12:54 15.07
13:54 15.07
14:54 15.07
15:54 15.07
16:54 15.07
17:54 15.07
18:54 15.07
19:54 15.07
20:54 15.07
Ветер
(напр.,м/с)
Видим. Явления Облачность Т
(С)
Тd
(С)
f
(%)
Тe
(С)
Тes
(С)
Комфортность P
(гПа)
Po
(гПа)
Тmin
(С)
Tmax
(С)
R
(мм)
R24
(мм)
S
(см)
Ю 2 16 км ясно +21.7 +20.0 90 +27 +27 душно 1019.9 982.1
штиль 0 13 км ясно +20.6 +19.4 93 +25 +25 комфорт 1019.5 981.8 +20.6 +28.3
штиль 0 16 км ясно +21.1 +18.9 87 +25 +25 комфорт 1018.5 980.8
штиль 0 16 км ясно +20.6 +18.3 87 +24 +24 комфорт 1018.1 980.2
штиль 0 16 км ясно +20.0 +18.3 90 +23 +23 комфорт 1018.4 980.5
штиль 0 13 км ясно +20.0 +18.3 90 +23 +23 комфорт 1018.6 980.8
штиль 0 13 км ясно +20.0 +18.3 90 +23 +23 комфорт 1018.9 980.8
ЮЗ 3 16 км ясно +22.8 +19.4 81 +29 +30 очень
душно
1018.8 980.8 +19.4 +22.8
Ю 4 16 км ясно +25.6 +20.0 71 +31 +33 очень
душно
1018.2 980.5
ЮЗ 5 16 км ясно +27.8 +20.0 63 +34 +37 очень
душно
1018.2 980.5
З 4 16 км ясно +28.9 +20.6 61 +36 +43 очень
душно
1017.8 980.2
ЮЗ 4 16 км ясно +30.0 +20.6 57 +37 +47 очень
душно
1017.7 979.8
ЮЗ 5
{9}
16 км 2/0 3000 m
[Ac]
+29.4 +20.0 57 +36 +44 очень
душно
1017.1 979.2
ЮЗ 5
{10}
16 км 5/0 3300 m
[Ac]
+29.4 +20.0 57 +36 +42 очень
душно
1016.2 978.5 +22.8 +30.0
ЮЗ 5 16 км 5/0 3600 m
[Ac]
+28.9 +20.6 61 +36 +43 очень
душно
1015.5 977.9
ЮЗ 7
{10}
16 км 2/0 3000 m
[Ac]
+30.0 +20.0 55 +36 +41 очень
душно
1015.1 977.6
ЮЗ 6 16 км 2/2 1500 м +29.4 +19.4 55 +35 +40 очень
душно
1014.2 976.6
ЮЗ 4 16 км ясно +30.0 +20.6 57 +37 +43 очень
душно
1013.7 975.9
ЮЗ 5 16 км 2/2 1350 м +28.9 +20.0 59 +35 +38 очень
душно
1014.1 976.3
З 8
{12}
16 км гроза, слабый дождь 5/2 1410 m
[Ac Cb]
+26.7 +17.2 56 +31 +31 душно 976.3
З 4 16 км 5/0 3300 m
[Ac]
+26.0 +19.0 65 +31 +32 очень
душно
976.3
ЮЗ 2 16 км 2/0 3300 m
[Ac]
+26.1 +18.9 65 +31 +33 очень
душно
1014.0 976.3 +26.1 +30.6
ЮЗ 4 16 км ясно +24.4 +18.9 71 +29 +29 душно 1014.1 976.3
З 3 16 км ясно +22.8 +19.4 81 +29 +29 очень
душно
1014.2 976.6
ЮЗ 3 16 км ясно +22.2 +18.9 82 +28 +28 душно 1014.0 976.3
ЮЗ 5 16 км ясно +21.7 +18.3 81 +26 +26 душно 1013.7 976.3
ЮЗ 4 16 км ясно +21.7 +18.3 81 +26 +26 душно 1013.9 976.3
ЮЗ 4 16 км 2/2 840 м +21.1 +18.3 84 +25 +25 комфорт 1014.2 976.6 +21.1 +26.1
ЮЗ 4 16 км 2/2 840 m
[Ac]
+21.1 +18.3 84 +25 +25 комфорт 1013.7 975.9
ЮЗ 3 16 км 8/8 930 м +21.1 +18.3 84 +25 +25 комфорт 1013.0 975.6
ЮЗ 5 16 км 8/8 960 м +22.2 +18.3 79 +27 +27 душно 1013.2 975.6
ЮЗ 4 16 км 2/0 3600 m
[Ac]
+21.7 +18.9 84 +27 +27 душно 1013.0 975.6
Ю 4 16 км ясно +21.7 +18.9 84 +27 +27 душно 1012.9 975.3
Ю 6 16 км 2/2 1230 м +22.8 +18.9 79 +29 +29 очень
душно
1013.0 975.3 +20.6 +23.3
ЮЗ 5 16 км ясно +24.4 +20.0 76 +30 +31 очень
душно
1013.1 975.3
ЮЗ 5 16 км 2/0 3600 m
[Ac]
+26.7 +21.7 74 +34 +37 очень
душно
1012.4 974.6
ЮЗ 6 14 км ясно +26.1 +21.1 74 +33 +37 очень
душно
1012.2 974.6
ЮЗ 7
{11}
16 км 2/2 870 м +27.2 +21.1 69 +34 +37 очень
душно
1012.0 974.3
ЮЗ 9
{14}
16 км ясно +28.9 +21.1 63 +36 +38 очень
душно
1011.5 974.0
ЮЗ 7
{11}
16 км 8/8 1080 м +30.0 +20.0 55 +36 +37 очень
душно
1011.4 974.0 +22.8 +30.0
ЮЗ 7
{13}
16 км 2/2 1500 м +31.1 +18.9 48 +36 +41 очень
душно
1011.1 973.7
З 7
{13}
16 км ясно +31.1 +18.3 46 +36 +41 очень
душно
1010.9 973.3
З 8 16 км ясно +31.1 +18.9 48 +36 +39 очень
душно
1010.4 973.0
З 5 16 км 2/2 1410 м +31.1 +20.0 52 +38 +42 очень
душно
1010.3 972.7
З 5 16 км 8/8 1290 м +30.0 +20.6 57 +37 +38 очень
душно
1010.0 972.7
ЮЗ 3 16 км 5/5 1650 м +28.9 +21.1 63 +36 +37 очень
душно
1009.9 972.4 +28.9 +31.7
Ю 2 16 км 5/5 1500 м +27.8 +21.1 67 +35 +35 очень
душно
1009.5 972.0
Ю 3 16 км 2/2 1440 м +26.1 +20.6 72 +33 +33 очень
душно
1009.5 972.0
Местоположение метеостанции Akron Fulton International Airport: широта 41.0375 долгота -81.4642 высота над уровнем моря 325 м.
В архиве по умолчанию представлена погода в Акроне за последние 1-2 суток. Обновление информации о фактической погоде в базе происходит ежечасно! Архивные данные за месяц целиком и за предыдущие месяцы Вы можете получить, выбрав интересующий диапазон дат из раскрывающегося списка и нажав кнопку "Ввод!".
Внимание! Архив погоды МЕТАР в базе сайта по станциям, не включенным в климатический монитор, хранится не более 60 дней. Нет смысла пытаться выбрать более раннюю дату.
*Определитесь, кто Вы:
Внимание! Время в таблицах - местное (без учета летнего времени). Для получения всемирного времени необходимо вычесть поправку, которая равна -5 ч.
Смотрите также архив погоды в соседних городах и на ближайших метеорологических станциях:
Партнеры нашего сайта:      
Пояснения к столбцам:
  • Ветер - указаны скорость ветра в м/с - средняя за 10 мин, порывы в срок и между сроками (в фигурных скобках) и направление, откуда дует ветер: С - северный,
  • СВ - северо-восточный, В - восточный, ЮВ - юго-восточный, Ю - южный, ЮЗ - юго-западный, З - западный, СЗ - северо-западный.
  • Видимость - горизонтальная дальность видимости в метрах или километрах. При видимости от 1 до 10 км при отсутствии осадков обычно наблюдается дымка, при ухудшении видимости до 1 км и менее - туман. В сухую погоду видимость может ухудшаться дымом, пылью или мглою.
  • Явления - указаны атмосферные явления, наблюдавшиеся в срок или в последний час перед сроком; фигурными скобками обозначены явления, наблюдавшиеся между сроками (за 1-3 часа до срока); квадратными скобками обозначены град или гололедные отложения с указанием их диаметра в мм.
  • Облачность - указаны через наклонную черту общая и нижняя облачность в баллах и высота нижней границы облаков в метрах; квадратными скобками обозначены формы облаков: Ci - перистые, Cs - перисто-слоистые, Cc - перисто-кучевые, Ac - высококучевые, As - высокослоистые, Sc - слоисто-кучевые, Ns - слоисто-дождевые, Cu - кучевые, Cb - кучево-дождевые. Подробнее классификацию облаков см. в Атласе облаков (PDF).
  • T - Температура воздуха - температура, измеренная на высоте 2 м над землей.
  • Td - Температура точки росы - температура, при понижении до которой содержащийся в воздухе водяной пар достигнет насыщения.
  • f - Относительная влажность воздуха - влажноcть воздуха, измеренная на высоте 2 м над землей.
  • Te - Эффективная температура - температура, которую ощущает одетый по сезону человек в тени. Характеристика душности погоды. При расчете учитывается влияние влажности воздуха и скорости ветра на теплоощущения человека.
  • Tes - Эффективная температура на солнце - температура, которую ощущает человек, с поправкой на солнечный нагрев. Характеристика знойности погоды. Зависит от высоты солнца над горизонтом, облачности и скорости ветра. Ночью, в пасмурную погоду, а также при ветре 12 м/с и более поправка равна нулю.
  • P - Атмосферное давление - приведенное к уровню моря атмосферное давление.
  • Po - Атмосферное давление - измеренное на уровне метеостанции атмосферное давление.
  • Tmin - Минимальная температура - минимум температуры воздуха на высоте 2 м над землей.
  • Tmax - Максимальная температура - максимум температуры воздуха на высоте 2 м над землей.
  • R - Количество осадков - Количество выпавших осадков за период времени, мм. При наведении курсора мыши на число - период времени, за который выпало указанное количество осадков.
  • R24 - Количество осадков - Количество выпавших осадков за 24 часа, мм.
  • S - Снежный покров - Высота снежного покрова, см. При наведении курсора мыши на число - состояние снежного покрова и степень покрытия местности в баллах.